Marshall, MI

11:03 AM EDT on October 17, 2017 (GMT -0400)
Brooks

Weather History for KRMY - February, 2013

Change the Weather History Date:

Thursday, February 7, 2013

  Actual Average (KBTL) Record (KBTL)
Temperature  
Mean Temperature 32 °F -  
Max Temperature 40 °F 31 °F 54 °F (2017)
Min Temperature 25 °F 18 °F -1 °F (2014)
Degree Days  
Heating Degree Days 32    
Moisture  
Dew Point 23 °F    
Average Humidity 73    
Maximum Humidity 92    
Minimum Humidity 62    
Precipitation  
Precipitation 0.00 in - - ()
Sea Level Pressure  
Sea Level Pressure 30.03 in    
Wind  
Wind Speed 6 mph (ESE)    
Max Wind Speed 13 mph    
Max Gust Speed 17 mph    
Visibility 9 miles    
Events Snow    
Averages and records for this station are not official NWS values.
T = Trace of Precipitation, MM = Missing Value Source: NWS Daily Summary

Daily Weather History Graph

Daily Weather History Graph

Search for Another Location

Airport or City:

Trip Planner

Search our weather history database for the weather conditions in past years. The results will help you decide how hot, cold, wet, or windy it might be!

Date:

Astronomy

Feb. 07, 2013 Rise Set
Actual Time 7:46 AM EST 6:02 PM EST
Civil Twilight 7:16 AM EST 6:31 PM EST
Nautical Twilight 6:43 AM EST 7:04 PM EST
Astronomical Twilight 6:11 AM EST 7:37 PM EST
Moon 5:26 AM EST (2/7) 3:24 PM EST (2/7)
Length of Visible Light 11h 14m
Length of Day
10h 16m
Waning Crescent, 9% of the Moon is Illuminated
Feb 7
Waning Crescent
Feb 10
New
Feb 17
First Quarter
Feb 25
Full
Mar 4
Last Quarter

Hourly Weather History & Observations

Time (EST) Temp. Windchill Dew Point Humidity Pressure Visibility Wind Dir Wind Speed Gust Speed Precip Events Conditions
12:14 AM 26.1 °F 18.4 °F 16.3 °F 67% 30.19 in 10.0 mi ESE 6.9 mph - N/A   Overcast
12:33 AM 25.9 °F 19.2 °F 15.8 °F 66% 30.20 in 10.0 mi SE 5.8 mph - N/A   Mostly Cloudy
12:54 AM 25.7 °F 18.0 °F 16.7 °F 69% 30.19 in 10.0 mi ESE 6.9 mph - N/A   Overcast
1:33 AM 25.5 °F 16.9 °F 16.5 °F 69% 30.18 in 10.0 mi SE 8.1 mph - N/A   Overcast
1:54 AM 25.7 °F 18.0 °F 16.5 °F 68% 30.18 in 10.0 mi SE 6.9 mph - N/A   Overcast
2:13 AM 26.1 °F - 17.1 °F 69% 30.20 in 10.0 mi Calm Calm - N/A   Overcast
2:33 AM 25.5 °F - 17.6 °F 72% 30.19 in 10.0 mi Calm Calm - N/A   Overcast
2:54 AM 25.7 °F 19.0 °F 18.0 °F 73% 30.18 in 10.0 mi East 5.8 mph - N/A   Overcast
3:13 AM 26.1 °F 18.4 °F 18.1 °F 72% 30.17 in 10.0 mi East 6.9 mph - N/A   Overcast
3:34 AM 26.1 °F 20.5 °F 18.3 °F 73% 30.17 in 10.0 mi East 4.6 mph - N/A   Mostly Cloudy
3:53 AM 26.2 °F - 18.3 °F 72% 30.18 in 10.0 mi Calm Calm - N/A   Mostly Cloudy
4:14 AM 26.1 °F 20.5 °F 18.1 °F 72% 30.17 in 10.0 mi East 4.6 mph - N/A   Mostly Cloudy
4:33 AM 26.1 °F 20.5 °F 18.7 °F 74% 30.17 in 10.0 mi East 4.6 mph - N/A   Overcast
4:54 AM 25.3 °F 16.7 °F 18.3 °F 75% 30.16 in 10.0 mi ESE 8.1 mph - N/A   Scattered Clouds
5:13 AM 25.2 °F 15.7 °F 18.1 °F 75% 30.16 in 10.0 mi ESE 9.2 mph - N/A   Clear
5:33 AM 25.2 °F 17.3 °F 18.0 °F 74% 30.16 in 10.0 mi ESE 6.9 mph - N/A   Clear
5:54 AM 25.2 °F 17.3 °F 18.1 °F 75% 30.16 in 10.0 mi ESE 6.9 mph - N/A   Clear
6:13 AM 25.0 °F 17.1 °F 18.1 °F 75% 30.16 in 10.0 mi ESE 6.9 mph - N/A   Clear
6:33 AM 25.2 °F 17.3 °F 18.1 °F 75% 30.15 in 10.0 mi SE 6.9 mph - N/A   Clear
6:53 AM 25.2 °F 18.3 °F 18.0 °F 74% 30.16 in 10.0 mi ESE 5.8 mph - N/A   Scattered Clouds
7:14 AM 25.0 °F 16.3 °F 18.1 °F 75% 30.15 in 10.0 mi ESE 8.1 mph - N/A   Mostly Cloudy
7:33 AM 25.0 °F 17.1 °F 17.8 °F 74% 30.15 in 10.0 mi SE 6.9 mph - N/A   Scattered Clouds
7:53 AM 25.0 °F 17.1 °F 17.8 °F 74% 30.14 in 10.0 mi SE 6.9 mph - N/A   Scattered Clouds
8:14 AM 25.2 °F 17.3 °F 18.0 °F 74% 30.14 in 10.0 mi ESE 6.9 mph - N/A   Scattered Clouds
8:33 AM 25.5 °F 18.7 °F 18.5 °F 75% 30.14 in 10.0 mi SE 5.8 mph - N/A   Mostly Cloudy
8:54 AM 25.5 °F 17.8 °F 18.9 °F 76% 30.14 in 10.0 mi ESE 6.9 mph - N/A   Scattered Clouds
9:13 AM 25.9 °F 17.4 °F 19.0 °F 75% 30.14 in 10.0 mi ESE 8.1 mph - N/A   Scattered Clouds
9:33 AM 26.2 °F 20.7 °F 19.4 °F 75% 30.13 in 10.0 mi SE 4.6 mph - N/A   Scattered Clouds
9:53 AM 26.8 °F 18.5 °F 19.9 °F 75% 30.13 in 10.0 mi SE 8.1 mph - N/A   Scattered Clouds
10:13 AM 27.3 °F 19.1 °F 20.1 °F 74% 30.12 in 10.0 mi ESE 8.1 mph - N/A   Scattered Clouds
10:34 AM 27.9 °F 20.6 °F 20.5 °F 74% 30.11 in 10.0 mi ESE 6.9 mph - N/A   Mostly Cloudy
10:53 AM 28.2 °F 21.0 °F 20.8 °F 74% 30.10 in 10.0 mi ESE 6.9 mph - N/A   Mostly Cloudy
11:14 AM 29.3 °F 21.5 °F 21.4 °F 72% 30.10 in 10.0 mi ESE 8.1 mph - N/A   Scattered Clouds
11:33 AM 29.7 °F 22.0 °F 21.9 °F 73% 30.09 in 10.0 mi ESE 8.1 mph - N/A   Clear
11:54 AM 30.4 °F 23.6 °F 22.6 °F 73% 30.08 in 10.0 mi ESE 6.9 mph - N/A   Scattered Clouds
12:13 PM 31.1 °F 25.4 °F 22.8 °F 71% 30.07 in 10.0 mi East 5.8 mph - N/A   Scattered Clouds
12:33 PM 32.2 °F 26.7 °F 23.5 °F 70% 30.06 in 10.0 mi East 5.8 mph - N/A   Clear
12:54 PM 32.9 °F 25.3 °F 24.3 °F 71% 30.04 in 10.0 mi ESE 9.2 mph - N/A   Scattered Clouds
1:13 PM 34.2 °F 27.5 °F 25.0 °F 69% 30.02 in 10.0 mi East 8.1 mph - N/A   Scattered Clouds
1:33 PM 36.3 °F 30.8 °F 25.7 °F 65% 30.01 in 10.0 mi ESE 6.9 mph - N/A   Scattered Clouds
1:53 PM 37.2 °F 31.9 °F 26.2 °F 65% 30.00 in 10.0 mi East 6.9 mph - N/A   Scattered Clouds
2:14 PM 37.8 °F 33.3 °F 26.6 °F 64% 30.00 in 10.0 mi East 5.8 mph - N/A   Mostly Cloudy
2:34 PM 38.8 °F 33.8 °F 27.0 °F 62% 29.98 in 10.0 mi East 6.9 mph - N/A   Scattered Clouds
2:53 PM 39.0 °F 33.4 °F 27.1 °F 62% 29.96 in 10.0 mi East 8.1 mph - N/A   Scattered Clouds
3:14 PM 39.4 °F 33.8 °F 27.5 °F 62% 29.95 in 10.0 mi ESE 8.1 mph - N/A   Clear
3:33 PM 39.7 °F 33.2 °F 27.5 °F 62% 29.94 in 10.0 mi East 10.4 mph - N/A   Clear
3:54 PM 39.9 °F 34.5 °F 27.7 °F 62% 29.94 in 10.0 mi East 8.1 mph - N/A   Scattered Clouds
4:14 PM 40.1 °F 36.1 °F 28.2 °F 63% 29.93 in 10.0 mi East 5.8 mph - N/A   Scattered Clouds
4:33 PM 40.1 °F 36.9 °F 28.2 °F 63% 29.93 in 10.0 mi East 4.6 mph - N/A   Scattered Clouds
4:54 PM 39.2 °F 35.0 °F 28.2 °F 65% 29.91 in 10.0 mi ENE 5.8 mph - N/A   Scattered Clouds
5:14 PM 38.5 °F 34.1 °F 28.2 °F 67% 29.91 in 10.0 mi East 5.8 mph - N/A   Mostly Cloudy
5:33 PM 37.9 °F 33.5 °F 28.2 °F 68% 29.90 in 10.0 mi East 5.8 mph - N/A   Mostly Cloudy
5:54 PM 37.0 °F 31.0 °F 27.9 °F 69% 29.90 in 10.0 mi East 8.1 mph - N/A   Mostly Cloudy
6:13 PM 36.5 °F 29.7 °F 28.0 °F 71% 29.89 in 10.0 mi East 9.2 mph - N/A   Mostly Cloudy
6:34 PM 36.1 °F 30.6 °F 28.2 °F 73% 29.89 in 10.0 mi ESE 6.9 mph - N/A   Overcast
6:54 PM 35.8 °F 28.8 °F 28.4 °F 75% 29.88 in 10.0 mi East 9.2 mph - N/A   Overcast
7:13 PM 35.2 °F 27.1 °F 28.0 °F 75% 29.88 in 10.0 mi East 11.5 mph 16.1 mph N/A   Overcast
7:34 PM 34.5 °F 29.4 °F 28.0 °F 77% 29.88 in 10.0 mi East 5.8 mph - N/A   Overcast
7:54 PM 34.2 °F 27.5 °F 27.3 °F 76% 29.88 in 10.0 mi East 8.1 mph - N/A   Overcast
8:13 PM 33.6 °F 24.6 °F 26.8 °F 76% 29.85 in 10.0 mi East 12.7 mph 17.3 mph N/A   Overcast
8:34 PM 33.6 °F 27.5 °F 26.8 °F 76% 29.85 in 10.0 mi East 6.9 mph - N/A   Overcast
8:53 PM 33.6 °F - 26.8 °F 76% 29.87 in 10.0 mi Calm Calm - N/A   Overcast
9:13 PM 33.4 °F - 26.8 °F 77% 29.88 in 5.0 mi Calm Calm - N/A Snow Light Snow
9:34 PM 32.7 °F - 27.3 °F 81% 29.87 in 5.0 mi Calm Calm - N/A Snow Light Snow
9:53 PM 32.0 °F 25.6 °F 28.6 °F 87% 29.87 in 1.0 mi ENE 6.9 mph - N/A Snow Snow
10:13 PM 30.6 °F 23.8 °F 28.2 °F 91% 29.85 in 0.8 mi ENE 6.9 mph - N/A Snow Snow
10:34 PM 30.0 °F 24.1 °F 27.7 °F 91% 29.84 in 1.0 mi East 5.8 mph - N/A Snow Snow
10:54 PM 29.8 °F 23.0 °F 27.7 °F 92% 29.82 in 1.0 mi ENE 6.9 mph - N/A Snow Light Snow
11:13 PM 29.8 °F 23.0 °F 27.7 °F 92% 29.81 in 1.0 mi East 6.9 mph - N/A Snow Snow
11:33 PM 29.8 °F 23.0 °F 27.7 °F 92% 29.80 in 1.2 mi ENE 6.9 mph - N/A Snow Light Snow
11:54 PM 29.8 °F 23.0 °F 27.7 °F 92% 29.80 in 1.5 mi ENE 6.9 mph - N/A Snow Light Snow